KC3MN Weather Reports


time (UTC)temp
C
wind
direction
speed
KPH
gust
KPH
rain 1hr
cm
rain 24hr
cm
rain mn
cm
humidity
%
barometer
mb
20260504081552 3 0 0.0 0.0 0.00 0.00 0.00 81 1013.0
20260504044559 6 0 0.0 3.2 0.00 0.00 0.00 71 1012.3
20260504043045 6 0 0.0 4.8 0.00 0.00 0.00 69 1012.2
20260504041553 6 172 0.0 1.6 0.00 0.00 0.00 68 1012.0
20260504040105 6 0 0.0 3.2 0.00 0.00 0.00 67 1012.1
20260504034612 7 172 0.0 3.2 0.00 0.00 0.00 65 1012.0
20260504033045 7 0 0.0 3.2 0.00 0.00 0.00 63 1012.0
20260504031550 8 0 0.0 3.2 0.00 0.00 0.00 61 1012.0
20260504030118 8 173 0.0 3.2 0.00 0.00 0.00 59 1011.9
20260504024555 8 0 0.0 3.2 0.00 0.00 0.00 57 1012.0
20260504023046 9 297 0.0 3.2 0.00 0.00 0.00 54 1012.0
20260504021554 10 0 0.0 6.4 0.00 0.00 0.00 48 1011.9
20260504020105 10 0 0.0 3.2 0.00 0.00 0.00 48 1011.9
20260504014556 10 0 0.0 3.2 0.00 0.00 0.00 46 1011.9
20260504013056 10 257 0.0 3.2 0.00 0.00 0.00 47 1011.7
20260504011548 10 0 0.0 3.2 0.00 0.00 0.00 48 1011.5
20260504010049 11 223 0.0 3.2 0.00 0.00 0.00 46 1011.4
20260504004545 11 0 0.0 3.2 0.00 0.00 0.00 43 1011.4
20260504003048 12 0 0.0 0.0 0.00 0.00 0.00 41 1011.4
20260504001603 12 0 0.0 3.2 0.00 0.00 0.00 39 1011.1
20260504000057 13 0 0.0 3.2 0.00 0.00 0.00 37 1011.0
20260503234546 13 0 0.0 3.2 0.00 0.00 0.00 37 1010.9
20260503233045 13 0 0.0 3.2 0.00 0.00 0.00 36 1010.7
20260503231551 14 5 0.0 9.7 0.00 0.00 0.00 35 1010.7
20260503230053 14 296 3.2 11.3 0.00 0.00 0.00 34 1010.6
20260503224550 14 348 1.6 11.3 0.00 0.00 0.00 34 1010.7
20260503223050 15 13 4.8 25.7 0.00 0.00 0.00 33 1010.7
20260503221550 15 332 3.2 11.3 0.00 0.00 0.00 33 1010.6
20260503220055 15 31 1.6 8.0 0.00 0.00 0.00 35 1010.7
20260503214551 15 331 1.6 14.5 0.00 0.00 0.00 34 1010.9
20260503213052 14 29 4.8 16.1 0.00 0.00 0.00 33 1010.7
20260503211554 15 360 4.8 14.5 0.00 0.00 0.00 32 1010.6
20260503210051 15 24 6.4 16.1 0.00 0.00 0.00 31 1010.6
20260503204556 15 269 3.2 8.0 0.00 0.00 0.00 33 1010.6
20260503203052 15 352 4.8 9.7 0.00 0.00 0.00 30 1010.4
20260503201550 15 360 4.8 19.3 0.00 0.00 0.00 30 1010.5
20260503200056 15 11 4.8 12.9 0.00 0.00 0.00 30 1010.8
20260503194555 15 352 6.4 20.9 0.00 0.00 0.00 31 1010.8
20260503193109 15 5 4.8 16.1 0.00 0.00 0.00 29 1011.0
20260503191550 15 290 4.8 14.5 0.00 0.00 0.00 31 1011.2
20260503190100 13 330 3.2 14.5 0.00 0.00 0.00 31 1011.4
20260503184551 13 5 3.2 16.1 0.00 0.00 0.00 32 1011.6
20260503183100 13 332 6.4 19.3 0.00 0.00 0.00 33 1011.8
20260503181551 13 346 6.4 16.1 0.00 0.00 0.00 33 1012.0
20260503180057 12 47 6.4 14.5 0.00 0.00 0.00 34 1012.3
20260503174549 12 347 6.4 20.9 0.00 0.00 0.00 36 1012.7
20260503173109 11 336 8.0 20.9 0.00 0.00 0.00 35 1013.0
20260503171552 12 20 6.4 20.9 0.00 0.00 0.00 36 1013.1